Theta_e
319 312 306 302 294 289 287 289 292 295 296 297 308 311 310 311 309 304 324 333 345 344 347 348 349 351 352 352 351 351 352 352 353 352 352 353 354 354 354 354 354 355 355 353 352 351 351 349 349
316 312 303 296 289 285 287 293 295 297 298 301 305 304 309 310 317 320 327 338 346 345 346 347 348 350 351 351 351 351 352 352 352 352 352 352 353 354 354 353 353 354 355 354 351 351 351 350 347
308 309 298 292 286 285 288 294 295 299 302 300 302 306 306 307 311 315 321 346 347 344 346 346 346 347 350 351 351 351 352 351 351 351 352 353 353 353 353 352 351 354 356 355 352 352 351 347 345
306 300 297 290 288 290 291 294 296 297 302 304 305 301 307 311 311 311 313 345 345 345 346 343 344 346 348 350 350 351 351 349 349 350 352 353 353 352 351 350 351 353 355 355 353 353 348 344 343
298 294 289 287 288 292 293 294 296 294 297 301 305 301 303 308 310 309 307 321 343 343 343 343 341 344 347 349 350 350 349 348 348 349 350 351 352 352 349 348 350 351 353 353 353 350 346 344 343
293 291 286 283 286 292 293 295 294 295 296 297 304 300 298 305 303 303 306 305 334 343 343 343 345 344 344 346 347 346 347 347 347 348 349 350 350 349 348 347 348 348 349 348 349 346 344 343 342
290 287 284 284 287 289 291 296 294 296 296 295 296 299 298 300 301 302 303 303 306 316 315 335 340 343 342 340 341 342 344 346 346 346 346 347 346 346 347 347 347 347 347 346 346 344 342 342 342
290 287 283 282 285 285 292 295 294 295 295 300 297 293 293 297 301 300 300 301 303 306 308 309 314 329 339 339 340 340 341 342 343 344 344 343 343 344 344 344 345 345 346 345 344 342 341 341 340
289 284 281 283 285 286 290 290 295 295 294 297 297 298 300 302 300 301 301 303 304 306 306 307 310 311 312 329 341 342 342 342 340 343 342 340 344 343 344 343 342 344 343 343 342 341 339 338 338
286 282 283 288 288 287 291 292 293 290 291 291 294 299 301 302 301 300 299 298 299 300 302 302 304 308 310 312 314 334 340 342 341 344 344 344 343 342 344 342 340 341 341 341 340 339 337 337 335
284 283 286 289 289 291 287 287 290 288 287 292 293 294 299 299 298 297 297 297 297 299 299 300 301 304 305 307 311 314 333 337 340 342 342 342 342 342 343 341 341 340 340 339 338 336 337 336 333
285 289 288 289 291 289 287 289 290 289 293 295 295 298 297 295 295 295 295 294 295 296 296 297 298 300 300 303 306 309 311 326 338 339 341 340 340 340 341 341 341 342 341 340 337 337 336 334 332
286 289 292 292 292 290 292 289 289 292 294 298 297 295 294 293 293 294 294 294 294 294 295 295 297 297 298 299 301 303 305 310 319 337 340 340 340 338 339 339 340 340 341 339 337 336 334 332 332
290 290 289 290 291 291 290 289 289 293 297 295 294 291 291 292 292 292 292 291 292 293 293 295 295 296 296 296 298 299 301 306 309 319 337 339 339 340 339 339 338 339 339 338 337 334 332 332 332
291 287 289 289 289 288 291 286 289 294 294 292 291 291 291 291 291 290 291 290 291 291 292 292 294 294 293 294 296 297 299 303 305 311 322 337 337 338 339 339 338 338 338 337 335 332 330 330 330
287 286 282 288 289 289 289 284 288 292 292 289 289 289 290 290 290 291 291 290 290 289 289 291 292 292 292 293 293 295 297 299 302 306 316 326 334 337 336 338 338 339 337 336 334 332 331 329 329
283 279 282 286 289 288 286 283 288 291 291 288 286 287 288 288 289 290 290 290 289 288 288 289 289 290 291 291 292 293 295 297 301 305 307 312 327 335 336 336 338 339 337 336 334 332 331 328 327
280 281 280 281 286 287 284 284 287 289 288 286 285 286 286 286 287 290 290 289 289 288 288 288 289 290 290 290 291 291 292 295 298 300 303 308 314 320 335 336 336 336 336 334 334 331 330 329 328
286 283 282 284 288 286 285 283 284 286 286 284 284 284 285 285 288 289 289 288 287 287 287 287 287 288 289 288 288 288 289 291 294 297 301 305 306 316 327 335 334 336 334 335 333 331 328 325 329
286 284 283 285 288 288 285 282 285 287 286 285 284 283 284 284 286 287 287 286 286 286 286 286 287 288 289 289 289 290 290 291 293 296 299 302 307 317 324 331 333 334 334 334 331 330 329 328 328
287 284 283 284 287 288 285 282 283 286 287 287 286 285 284 284 284 284 285 285 285 284 285 286 288 288 289 290 291 291 291 292 292 295 298 303 310 311 314 321 330 331 334 333 331 331 328 326 324
283 289 288 286 284 278 285 276 283 284 284 285 284 283 283 283 284 284 283 283 283 284 286 287 288 288 289 290 289 289 288 288 291 293 297 301 306 308 311 316 323 329 333 333 332 332 330 327 324
286 291 288 287 283 281 282 276 279 285 284 283 283 283 282 283 283 282 282 283 284 285 286 287 287 288 288 289 289 289 289 291 293 294 296 298 301 304 308 313 319 318 320 329 332 331 329 329 326
292 288 287 286 282 275 282 280 278 280 281 283 283 283 283 283 283 283 283 283 284 286 286 286 287 287 288 288 289 290 289 290 293 295 295 297 300 303 309 315 316 318 316 321 326 331 329 328 328
288 284 276 275 274 276 284 280 278 282 283 283 281 281 282 282 282 281 281 281 284 284 285 286 286 285 287 288 289 289 290 292 293 296 298 300 301 303 307 313 314 317 318 318 321 330 329 328 326
286 286 278 273 272 275 285 279 279 284 285 284 284 285 283 281 281 281 280 281 283 285 285 286 286 285 287 287 287 289 290 291 292 296 299 301 304 305 307 311 309 316 319 321 321 321 330 329 328
286 283 289 283 281 275 279 281 282 284 283 283 282 283 279 279 280 279 280 281 283 284 284 285 285 285 286 287 288 288 289 289 290 293 297 302 308 308 313 307 305 307 315 317 318 319 319 329 329
290 291 283 283 274 274 277 276 276 281 281 280 276 281 277 279 279 279 279 280 283 283 285 285 285 285 286 287 287 288 288 288 289 291 292 296 300 304 303 301 300 302 310 314 317 319 320 327 327
286 285 287 286 281 273 269 275 283 280 277 276 277 281 274 275 275 277 279 279 282 283 283 283 284 284 285 286 286 287 286 287 288 288 289 291 294 295 297 297 297 297 298 299 315 319 321 326 326
289 287 288 281 280 280 274 276 285 282 281 281 280 276 274 275 274 275 277 278 280 282 282 283 283 283 285 285 285 286 286 286 286 286 286 289 290 292 292 293 293 293 293 293 294 297 301 301 302
Wind_Speed
9 7 0 5 5 6 4 4 3 7 10 6 10 13 11 6 5 5 8 8 2 4 4 4 5 5 5 5 5 5 5 6 8 10 11 12 13 14 16 16 15 14 14 15 14 12 12 9 7
5 4 5 3 6 4 4 6 9 4 4 4 9 4 9 5 4 2 6 12 5 4 3 4 5 4 5 4 4 4 5 7 7 7 9 10 11 12 15 15 14 14 14 14 14 12 12 10 8
3 3 4 5 4 3 2 5 9 6 5 3 5 6 4 4 5 2 7 6 4 5 4 3 4 5 5 5 4 4 4 5 6 7 8 9 10 11 13 13 12 12 13 12 13 11 10 10 10
4 5 5 5 3 2 3 8 6 6 8 10 8 8 5 5 3 5 9 6 3 3 4 5 5 5 5 3 5 5 5 5 6 6 7 9 9 9 10 11 11 11 12 11 10 10 9 8 8
5 4 5 3 1 2 2 4 6 11 4 9 3 5 5 4 5 5 7 7 5 4 2 3 4 4 5 6 6 6 6 5 6 6 7 8 9 9 9 9 10 10 10 10 10 10 10 8 7
5 4 5 1 2 5 0 5 3 7 5 6 7 5 3 5 1 2 2 7 6 6 6 5 5 6 5 4 4 6 6 6 6 6 7 7 8 9 9 9 9 9 10 9 10 10 10 10 8
7 5 2 2 4 2 4 3 5 3 5 7 2 4 2 6 8 8 9 9 10 14 16 9 6 7 8 9 8 5 5 6 7 8 8 8 7 7 9 10 9 10 10 10 10 10 10 10 10
6 5 2 2 0 1 5 4 2 6 3 4 4 3 2 4 8 10 10 14 14 16 17 16 17 15 10 6 7 10 6 6 7 8 9 8 8 8 8 9 9 10 10 11 11 11 10 9 8
4 5 1 5 6 3 1 2 4 2 2 3 4 3 2 5 13 16 12 15 14 14 15 15 16 15 15 13 8 8 8 8 8 6 7 6 4 6 8 9 10 11 11 11 11 10 11 10 9
5 4 7 5 3 2 3 3 3 1 5 1 2 4 16 16 10 14 13 12 15 16 15 15 14 14 14 12 14 12 7 4 4 7 7 6 9 6 7 8 11 11 11 11 12 11 10 8 4
3 5 4 5 4 3 1 2 3 2 1 6 5 8 9 12 13 12 11 10 9 9 10 14 14 12 13 12 8 7 8 5 3 6 6 6 5 6 5 4 5 5 8 5 6 6 4 5 4
4 5 1 5 4 2 3 2 5 4 6 9 13 9 10 15 13 13 12 14 16 15 13 13 13 12 12 9 8 7 7 10 6 7 8 6 5 7 8 7 8 7 6 8 6 5 8 6 5
3 4 8 6 9 6 3 5 3 7 10 15 15 15 14 13 11 11 11 11 13 17 18 16 14 13 13 12 8 8 8 7 11 10 10 10 8 8 8 9 8 8 8 8 8 9 8 7 6
5 6 9 8 7 5 5 3 3 5 15 16 15 13 12 14 11 10 14 14 15 15 16 17 15 13 13 12 13 10 8 8 8 10 11 12 12 9 9 10 9 9 9 9 10 10 8 7 6
6 7 8 6 4 2 7 1 7 13 15 13 10 9 11 12 11 13 12 12 13 13 14 16 18 17 14 13 12 11 10 9 9 8 14 15 12 14 13 10 10 11 9 12 8 7 5 5 5
5 4 5 6 5 5 4 8 12 6 16 9 9 9 10 11 11 10 12 11 13 13 15 15 14 15 16 14 12 11 11 10 10 9 9 16 13 15 15 11 11 10 9 10 9 8 8 7 7
5 3 2 10 6 3 3 5 4 8 12 10 9 8 9 9 11 10 13 12 13 13 15 15 15 15 16 15 13 12 13 11 9 9 9 13 16 15 12 11 12 12 11 11 10 9 9 8 7
3 4 4 6 6 4 2 4 2 7 11 8 7 8 10 11 12 12 13 13 13 13 14 14 14 15 16 12 11 11 10 9 9 10 10 14 10 16 12 10 13 12 11 11 10 12 9 8 9
5 4 6 8 11 1 4 3 3 4 7 8 7 8 10 11 10 12 13 14 14 15 16 16 17 16 14 12 12 12 12 12 11 10 15 13 13 14 14 10 12 14 14 15 14 10 11 6 7
7 9 10 7 6 3 5 2 4 3 4 4 6 9 12 14 16 15 16 16 15 16 17 17 16 16 14 11 12 12 12 12 12 12 14 15 14 13 9 10 11 13 12 16 15 14 9 8 9
9 7 6 8 2 4 2 3 5 3 6 6 7 5 7 11 15 16 17 16 16 16 16 16 17 17 17 19 12 12 12 12 13 12 10 12 11 11 11 11 10 12 15 12 15 16 15 11 7
7 9 9 5 1 3 3 7 5 6 5 5 6 7 9 12 10 13 15 16 15 15 16 19 19 20 16 18 15 17 15 16 13 13 13 13 12 11 11 10 9 7 6 15 15 14 14 11 11
7 3 4 3 4 2 4 2 2 8 5 3 8 10 10 11 12 15 16 15 15 16 18 17 20 19 19 18 16 15 17 13 11 13 17 17 14 13 13 11 8 6 5 7 12 13 14 11 11
6 1 4 3 2 3 8 7 4 3 1 3 5 7 10 12 12 13 14 14 15 17 17 19 20 18 18 17 17 16 17 16 14 14 13 12 10 10 10 8 7 4 4 12 15 14 17 14 12
4 5 4 5 3 6 4 1 4 4 2 1 4 6 8 8 11 13 16 17 18 20 19 17 19 21 21 20 18 17 16 17 17 15 11 12 10 9 8 8 7 3 5 7 12 12 14 15 14
6 7 6 7 3 5 5 5 3 3 5 3 3 5 6 10 11 13 15 14 17 18 18 19 19 21 20 21 21 18 17 11 12 12 12 11 10 9 9 7 5 6 6 6 5 10 13 14 14
4 2 3 3 1 2 3 4 3 6 4 2 4 6 7 8 10 12 13 13 16 16 17 17 18 20 18 20 17 17 16 15 13 17 13 11 10 11 9 4 2 3 10 11 14 9 11 14 15
3 4 2 3 3 4 3 3 6 9 6 2 3 4 6 7 10 12 12 13 12 14 14 15 16 17 18 19 16 15 16 15 14 14 16 15 7 6 6 6 4 5 6 3 8 9 11 13 10
4 3 3 3 5 4 2 7 3 6 6 5 2 3 3 6 8 9 11 11 10 12 13 14 16 18 18 18 16 17 17 18 16 16 16 15 10 10 9 8 6 9 13 12 2 15 16 15 10
4 2 3 4 3 1 3 6 2 5 6 4 3 3 2 3 5 7 9 10 11 13 15 16 16 17 18 16 17 18 18 20 20 20 20 17 14 12 13 12 10 12 14 16 19 17 12 19 14
Wind_Direction
324 313 38 43 57 65 298 306 259 344 341 359 48 78 97 51 45 125 284 335 32 115 132 146 142 138 129 128 130 125 112 111 120 125 128 133 136 136 134 134 136 138 143 149 148 145 140 144 148
320 324 37 65 92 75 281 271 303 342 275 207 70 32 48 67 31 62 354 335 76 128 136 137 133 122 111 120 144 152 148 133 134 137 137 140 143 145 140 143 143 147 149 153 156 154 148 150 145
286 42 79 90 79 144 226 282 281 269 334 73 97 46 59 0 0 52 316 322 84 115 130 118 141 135 136 141 154 167 177 162 159 153 152 148 152 153 149 147 149 152 153 157 160 155 148 149 144
26 10 31 78 160 248 360 303 319 320 11 37 114 66 58 348 50 357 322 341 40 110 147 156 173 164 151 152 164 180 189 192 182 176 172 159 159 162 159 155 154 154 154 158 159 146 151 157 148
38 44 46 51 309 299 49 331 13 38 32 2 8 96 85 18 345 333 334 356 21 8 28 187 199 212 187 186 178 185 194 199 200 200 197 178 169 170 172 169 163 159 156 156 155 154 159 165 159
51 96 34 296 291 292 288 3 29 35 21 15 66 65 64 304 323 293 85 35 16 32 355 340 326 321 290 254 219 189 196 205 203 212 220 214 186 182 183 182 175 168 160 157 155 159 165 167 168
109 89 209 261 280 297 354 301 35 16 9 13 335 76 204 351 331 352 21 37 31 29 19 0 5 347 337 326 308 266 216 204 207 210 214 219 210 199 196 191 183 174 167 162 162 164 172 173 169
98 89 123 198 172 320 342 22 9 35 357 316 8 67 313 263 8 14 28 26 35 34 26 19 14 3 339 323 319 303 274 240 216 213 211 212 204 205 206 201 194 183 174 168 168 170 172 179 171
114 58 206 222 163 206 301 93 327 232 46 337 18 136 258 27 33 36 18 14 20 22 22 12 9 3 0 352 322 293 275 259 246 240 228 210 214 201 204 204 202 189 180 175 173 175 175 177 173
86 121 222 227 194 213 185 173 214 88 338 280 332 5 63 58 51 52 33 16 14 14 10 9 4 359 357 356 349 329 299 268 260 243 226 223 222 208 195 201 205 198 185 179 177 176 175 164 173
8 190 214 265 277 275 215 239 214 164 213 223 245 70 52 63 47 49 43 32 7 359 12 6 359 359 359 352 349 349 330 302 265 252 247 218 220 217 204 193 202 200 189 181 177 170 169 186 174
338 250 248 292 3 311 283 295 307 184 239 44 76 87 71 54 46 37 28 16 6 5 5 3 358 358 358 347 345 339 342 332 296 270 224 233 216 214 213 209 198 200 190 187 178 176 189 189 189
208 337 323 281 281 249 269 261 271 271 37 79 77 63 61 58 42 35 27 17 6 4 354 359 356 358 350 348 341 337 331 325 326 295 259 231 223 221 208 212 202 200 197 190 188 193 192 187 186
310 290 276 270 234 215 205 239 155 36 95 73 69 64 59 55 40 28 24 13 10 359 352 346 349 354 346 342 338 329 320 312 315 308 283 263 247 228 217 204 204 203 200 198 192 193 191 189 183
288 309 322 314 309 173 145 350 218 97 88 80 67 65 60 48 37 33 14 7 1 356 347 348 342 343 342 338 333 324 314 313 303 300 299 280 264 241 221 212 204 206 199 200 197 185 178 174 181
333 25 344 300 356 348 71 266 22 93 97 69 49 36 41 39 28 22 8 4 358 348 347 341 339 335 335 332 324 315 311 304 297 296 305 301 269 254 233 219 212 203 199 194 194 193 189 195 187
359 296 302 317 360 95 86 278 331 16 82 66 39 24 22 14 17 10 2 359 354 345 339 339 338 337 331 321 317 311 305 297 295 293 293 294 300 274 232 227 218 198 197 197 194 195 190 192 192
329 333 312 271 289 21 265 256 44 37 71 63 36 19 13 6 4 354 354 353 347 341 338 337 337 331 329 320 313 308 302 296 299 291 288 288 298 304 255 218 223 205 197 202 194 194 193 189 190
281 249 255 267 269 266 235 226 122 68 55 44 27 13 4 0 340 348 350 348 343 345 342 340 336 334 329 326 323 315 306 302 297 291 288 290 291 289 290 235 212 211 200 198 196 192 192 184 182
251 260 270 255 258 200 276 176 153 127 80 78 37 14 1 351 353 351 349 349 346 340 339 335 332 328 326 318 312 304 300 298 293 289 283 279 273 281 293 262 226 224 204 194 182 190 183 194 184
247 235 239 245 297 272 245 232 174 108 124 74 48 18 1 354 345 345 345 344 343 340 335 331 329 327 325 321 310 301 294 292 297 295 293 287 284 294 294 295 270 231 208 199 190 187 185 188 187
269 231 247 246 95 248 126 275 220 167 141 75 26 8 360 356 345 341 343 344 337 334 333 337 333 328 324 315 310 304 296 294 290 288 284 285 286 288 287 284 301 268 268 221 203 184 192 186 191
250 263 242 233 232 247 215 84 297 139 197 17 14 6 359 355 345 343 345 331 333 340 340 336 333 330 322 321 312 302 295 288 285 284 281 279 280 278 272 268 263 248 263 291 201 186 191 192 192
250 271 335 21 129 274 227 167 269 201 307 322 355 1 353 352 346 343 331 336 341 343 343 342 335 327 322 321 314 309 298 292 289 281 279 276 272 271 254 256 256 243 226 219 289 205 192 194 198
159 82 318 326 1 233 189 153 253 171 122 67 345 355 343 343 351 338 339 345 345 345 344 338 337 333 333 329 325 324 313 301 294 292 279 263 264 256 243 229 229 218 203 217 261 259 197 194 196
212 185 175 228 221 260 280 246 260 149 135 105 27 12 346 351 354 341 338 341 343 340 341 336 334 339 337 337 339 336 326 320 308 303 287 267 262 253 248 210 225 227 179 170 248 262 236 202 194
323 281 260 291 344 42 225 318 188 161 163 59 5 10 354 354 341 337 334 337 347 339 338 339 338 344 343 341 341 340 337 335 334 324 310 292 257 235 223 144 243 246 237 191 169 243 294 203 198
120 252 335 5 290 247 274 263 244 208 222 312 332 11 343 349 347 349 334 326 343 334 338 343 344 347 347 346 347 353 345 344 357 349 339 328 355 46 75 69 19 17 22 305 199 193 249 201 198
19 314 342 228 164 208 241 255 190 192 181 208 220 68 340 324 357 331 326 315 339 336 342 350 351 353 352 349 354 358 358 359 10 12 354 346 353 41 59 51 59 68 57 21 101 219 202 228 201
173 167 71 252 254 146 164 267 52 142 168 170 176 124 277 346 338 319 317 309 351 351 349 355 357 357 355 350 0 4 7 11 14 13 7 352 2 43 55 48 51 64 69 61 56 51 62 53 27